Simultaneous Nadir Overpasses (SNOs) Predictions

Prediction of SNOs between GOES-16 and AQUA Satellite Orbit:

Table of predicted SNOs for the next 14.0 days since TLE Epoch: 10/28/2023
Index Date Time (GOES-16) GOES-16 Lat,Lon AQUA Lat,Lon Distance(km) Time Diff (sec)
1 10/28/2023 06:37:16 0.03, -75.20 -0.92, -70.81 499.98 80
2 10/28/2023 18:57:58 -0.02, -75.21 -0.15, -75.82 69.86 80
3 10/30/2023 18:45:46 -0.03, -75.22 0.60, -72.19 343.87 80
4 10/31/2023 07:06:20 0.02, -75.22 0.44, -77.17 222.53 80
5 11/02/2023 06:48:48 0.02, -75.23 -0.36, -73.55 191.95 80
6 11/02/2023 19:09:30 -0.02, -75.24 -0.75, -78.56 377.76 80
7 11/04/2023 18:57:17 -0.01, -75.26 0.05, -74.93 37.95 80
8 11/06/2023 18:42:23 -0.01, -75.29 0.84, -71.29 454.79 80
9 11/07/2023 07:02:56 0.01, -75.30 0.23, -76.26 110.45 80
10 11/09/2023 06:45:21 0.01, -75.33 -0.54, -72.62 307.73 80
11 11/09/2023 19:06:03 -0.01, -75.34 -0.52, -77.63 261.17 80
